Location: Berlise
(49.6641°N, 4.1077°E)
Time: 23:32:45
(UTC+00:00)

USA 306 - Pass Details

Date: 27 January 2021
Orbit: 569 x 574 km, 54.0° (Epoch: 28 February)

Event Time Altitude Azimuth Distance (km) Brightness Sun altitude
Exits shadow 05:02:20 48° 192° (SSW) 753 3.3 -22.6°
Maximum altitude 05:03:10 58° 147° (SSE) 667 3.3 -22.4°
Drops below altitude 10° 05:07:22 10° 68° (ENE) 1,874 6.4 -21.8°
Sets 05:09:38 0° 65° (ENE) 2,775 7.4 -21.4°
